Location: G?julap?du
(16.5372°N, 81.0979°E)
Time: 11:19:52
(UTC+00:00)

Spot 4 Rocket - Pass Details

Date: 14 April 2026
Orbit: 768 x 773 km, 98.8° (Epoch: 20 May)

Event Time Altitude Azimuth Distance (km) Brightness Sun altitude
Rises 13:15:18 0° 152° (SSE) 3,228 6.8 -6.6°
Reaches altitude 10° 13:17:43 10° 145° (SE) 2,303 6.0 -7.1°
Maximum altitude 13:22:28 42° 75° (ENE) 1,095 4.4 -8.3°
Drops below altitude 10° 13:27:14 10° 6° (N) 2,310 6.6 -9.4°
Sets 13:29:38 0° 359° (N) 3,238 7.4 -9.9°
